This is the latest recevied weather packets stored in our database for station/object KG4GJX. If no packets are shown the sender has not sent any weather packets the latest 10 day(s).
| Time | Temp. | Humidity | Pressure | Rain* | Wind** | Luminosity | Snow |
|---|---|---|---|---|---|---|---|
| 1777471721 | 18.89° C | 100% | 1013.2 hPa | 0 mm | - | - | - |
| 1777471058 | 18.33° C | 100% | 1013.2 hPa | 0 mm | - | - | - |
| 1777470396 | 18.33° C | 100% | 1013.2 hPa | 0 mm | - | - | - |
| 1777469734 | 17.78° C | 100% | 1013.2 hPa | 0 mm | - | - | - |
| 1777469071 | 17.78° C | 100% | 1013.2 hPa | 0 mm | - | - | - |
| 1777468409 | 17.78° C | 100% | 1013.5 hPa | 0 mm | - | - | - |
| 1777467746 | 17.22° C | 100% | 1013.5 hPa | 0 mm | - | - | - |
| 1777467084 | 17.22° C | 100% | 1013.5 hPa | 0 mm | - | - | - |
| 1777466421 | 17.78° C | 100% | 1013.5 hPa | 0 mm | - | - | - |
| 1777465759 | 17.22° C | 100% | 1013.5 hPa | 0 mm | - | - | - |
| 1777465096 | 16.67° C | 100% | 1013.5 hPa | 0 mm | - | - | - |
| 1777464434 | 16.67° C | 100% | 1013.5 hPa | 0 mm | - | - | - |
| 1777463772 | 16.11° C | 100% | 1013.5 hPa | 0 mm | - | - | - |
| 1777463109 | 16.11° C | 100% | 1013.2 hPa | 0 mm | - | - | - |
| 1777462447 | 16.11° C | 100% | 1013.2 hPa | 0 mm | - | - | - |
| 1777461784 | 16.11° C | 100% | 1012.8 hPa | 0 mm | - | - | - |
| 1777461122 | 16.11° C | 100% | 1012.5 hPa | 0 mm | - | - | - |
| 1777460460 | 15.56° C | 100% | 1012.1 hPa | 0 mm | - | - | - |
| 1777459797 | 16.11° C | 100% | 1012.1 hPa | 0 mm | - | - | - |
| 1777459135 | 16.11° C | 100% | 1011.8 hPa | 0 mm | - | - | - |
| 1777458472 | 16.11° C | 100% | 1011.8 hPa | 0 mm | - | - | - |
| 1777457810 | 16.11° C | 100% | 1011.5 hPa | 0 mm | - | - | - |
| 1777457147 | 16.11° C | 100% | 1011.8 hPa | 0 mm | - | - | - |
| 1777456485 | 16.67° C | 100% | 1011.8 hPa | 0 mm | - | - | - |
| 1777455822 | 16.67° C | 100% | 1011.5 hPa | 0 mm | - | - | - |
* Rain latest hour (hover to see other rain measurements)
** Current wind speed in m/s (hover to see current wind gust speed)